Kezdőlap
METAR-TAF:

METAR-TAF

Repülőterek :

Vinton Veterans Memorial Airpark

Vinton, Iowa, Amerikai Egyesült Államok

földrajzi szélesség: 42-13-07N, földrajzi hosszúság: 092-01-33W, magasság: 258 m

Jelenlegi meteorológiai megfigyelések

A jelentés 29 perccel ezelõtt készült, 02:15 UTC
Déli szél 10 kt széllökések: 14 kt
Hőmérséklet -9°C
Páratartalom 67%
Légköri nyomás 1020 hPa
Látótávolság: 16.1 km
Derült ég

METAR: KVTI 270215Z AUTO 17010G14KT 10SM CLR M09/M14 A3012 RMK AO2 T10901143

Idő: 20:44 (02:44 UTC)


TAF: hiányzik

Meteorológiai megfigyelések és előrejelzések több, mint 4000 repülőtéren (METAR és TAF jelentéseket).

A térképen piros és sárga pontok jelzik az elérhető meteorológiai állomásokat.

Mozgassa az egeret a pont fölött, hogy megjelenjen az állomás neve.

Azután kattintson az időjárási megfigyelések és előrejelzések megtekintéséhez.

A térkép megváltoztatása: kattintson a fekete keresztel jelölt zöld gombra ráközelítéshez, a vonallal jelölt zöld gombra távolításhoz, vagy a zöld nyilakra a szomszédos térképek eléréséhez.


METAR-TAF: